Regional Weather Roundup
Issued by NWS

Home | Current Version | Previous Version | Text Only | Print | Product List | Glossary Off
Versions: 1 2 3 4 5 6 7 8 9 10 11 12 13 14 15 16 17 18 19 20 21 22 23 24 25 26 27 28 29 30 31 32 33 34 35 36 37 38 39 40 41 42 43 44 45 46 47 48 49 50

000
ASUS45 KSLC 021810
RWRUT

UTAH REGIONAL WEATHER ROUNDUP
NATIONAL WEATHER SERVICE SALT LAKE CITY UT
1200 PM MDT TUE SEP 02 2014

UTZ001>011-023>025-021900-

NORTHERN UTAH

CITY           SKY/WX    TMP DP  RH WIND       PRES   REMARKS
DUGWAY         SUNNY     82  37  20 SW5       30.02F
HILL AFB       SUNNY     75  39  27 VRB2      30.05F
LOGAN          SUNNY     69  45  41 VRB3      30.03F
OGDEN          SUNNY     77  36  22 VRB3      30.02F
PROVO AIRPORT  SUNNY     72  48  43 VRB5      30.06F
SALT LAKE CITY SUNNY     78  41  26 E3        30.00F
VERNAL         SUNNY     70  40  33 VRB5      30.12F
WENDOVER       SUNNY     75  36  23 SE7       30.02S
HEBER CITY     SUNNY     68  43  40 CALM      30.11F
WEST JORDAN    SUNNY     81  48  32 S14G21    30.03F

$$

UTZ012>022-026-027-021900-

SOUTHERN UTAH

CITY           SKY/WX    TMP DP  RH WIND       PRES   REMARKS
BRYCE CANYON   SUNNY     76  41  28 S10       30.28F
CEDAR CITY     SUNNY     84  36  18 SW15G23   30.11F
MILFORD        SUNNY     83  39  21 S12       30.07F
MOAB/CYNLANDS  SUNNY     82  36  19 SE5       30.04F
PRICE          SUNNY     78  30  17 VRB5      30.14F
ST GEORGE      CLEAR     88  45  22 NW3       29.96F

$$

REGIONAL REPORTS     COLORADO/ARIZONA

CITY           SKY/WX    TMP DP  RH WIND       PRES   REMARKS
CRAIG, CO      SUNNY     71  42  35 NE5       30.18F
GRAND JUNCTION SUNNY     76  38  25 CALM      30.09F
RIFLE          SUNNY     72  39  30 NE5       30.14F
MONTROSE       SUNNY     77  42  28 NW7       30.16F
CORTEZ         SUNNY     83  37  19 VRB5      30.17F
PAGE, AZ       SUNNY     89  38  16 VRB6      30.05F
GRAND CANYON   SUNNY     79  36  21 SW9       30.24F
KINGMAN        SUNNY     92  37  14 VRB3      29.99F
FLAGSTAFF      SUNNY     76  38  25 S12       30.29S

$$

REGIONAL REPORTS    NEVADA/IDAHO/WYOMING

CITY           SKY/WX    TMP DP  RH WIND       PRES   REMARKS
LAS VEGAS, NV  SUNNY     96  33  11 E6        29.83F HX  91
ELY            NOT AVBL
ELKO           SUNNY     74  35  24 CALM      30.05F
POCATELLO, ID  SUNNY     72  39  30 VRB3      30.03F
BURLEY         SUNNY     71  44  37 CALM      30.00F
EVANSTON, WY   SUNNY     71  35  26 SW15G24   30.17F
ROCK SPRINGS   SUNNY     70  32  24 S7        30.16F

$$


USA.gov is the U.S. government's official web portal to all federal, state and local government web resources and services.